| time (UTC) | temp F | wind direction | speed MPH | gust MPH | rain 1hr in | rain 24hr in | rain mn in | humidity % | barometer mb |
| 20260504004510 | 66 | 245 | 1.0 | 1.0 | 0.00 | 0.00 | 0.00 | 50 | 1005.2 |
| 20260504004006 | 66 | 238 | 1.0 | 2.0 | 0.00 | 0.00 | 0.00 | 49 | 1005.5 |
| 20260504003502 | 66 | 223 | 1.0 | 1.0 | 0.00 | 0.00 | 0.00 | 48 | 1005.2 |
| 20260504002959 | 67 | 252 | 3.0 | 3.0 | 0.00 | 0.00 | 0.00 | 48 | 1005.4 |
| 20260504002456 | 67 | 229 | 1.0 | 2.0 | 0.00 | 0.00 | 0.00 | 48 | 1005.5 |
| 20260504001954 | 67 | 237 | 2.0 | 2.0 | 0.00 | 0.00 | 0.00 | 47 | 1005.5 |
| 20260504001451 | 67 | 242 | 2.0 | 3.0 | 0.00 | 0.00 | 0.00 | 47 | 1005.3 |
| 20260504000947 | 67 | 249 | 3.0 | 3.0 | 0.00 | 0.00 | 0.00 | 47 | 1005.3 |
| 20260504000445 | 67 | 274 | 3.0 | 3.0 | 0.00 | 0.00 | 0.00 | 47 | 1005.4 |
| 20260503235942 | 68 | 236 | 1.0 | 1.0 | 0.00 | 0.00 | 0.00 | 46 | 1005.6 |
| 20260503235439 | 68 | 274 | 4.0 | 6.0 | 0.00 | 0.00 | 0.00 | 46 | 1005.4 |
| 20260503234937 | 68 | 240 | 5.0 | 7.0 | 0.00 | 0.00 | 0.00 | 46 | 1005.3 |
| 20260503234434 | 68 | 255 | 6.0 | 8.0 | 0.00 | 0.00 | 0.00 | 45 | 1005.5 |
| 20260503233932 | 68 | 240 | 3.0 | 3.0 | 0.00 | 0.00 | 0.00 | 46 | 1005.4 |
| 20260503233428 | 68 | 257 | 6.0 | 7.0 | 0.00 | 0.00 | 0.00 | 45 | 1005.4 |
| 20260503232925 | 68 | 301 | 3.0 | 5.0 | 0.00 | 0.00 | 0.00 | 44 | 1005.4 |
| 20260503232422 | 68 | 250 | 5.0 | 6.0 | 0.00 | 0.00 | 0.00 | 44 | 1005.6 |
| 20260503231920 | 68 | 251 | 3.0 | 5.0 | 0.00 | 0.00 | 0.00 | 44 | 1005.4 |
| 20260503231417 | 68 | 229 | 6.0 | 8.0 | 0.00 | 0.00 | 0.00 | 44 | 1005.6 |
| 20260503230913 | 69 | 261 | 4.0 | 5.0 | 0.00 | 0.00 | 0.00 | 43 | 1005.7 |
| 20260503230409 | 69 | 267 | 3.0 | 6.0 | 0.00 | 0.00 | 0.00 | 44 | 1005.6 |
| 20260503225908 | 69 | 251 | 7.0 | 8.0 | 0.00 | 0.00 | 0.00 | 43 | 1005.7 |
| 20260503225403 | 69 | 245 | 6.0 | 9.0 | 0.00 | 0.00 | 0.00 | 44 | 1005.8 |
| 20260503224900 | 69 | 231 | 3.0 | 5.0 | 0.00 | 0.00 | 0.00 | 45 | 1005.8 |
| 20260503224357 | 68 | 232 | 3.0 | 3.0 | 0.00 | 0.00 | 0.00 | 45 | 1005.5 |
| 20260503223855 | 68 | 272 | 5.0 | 7.0 | 0.00 | 0.00 | 0.00 | 45 | 1005.6 |
| 20260503223352 | 68 | 237 | 3.0 | 6.0 | 0.00 | 0.00 | 0.00 | 45 | 1005.7 |
| 20260503222847 | 68 | 250 | 5.0 | 7.0 | 0.00 | 0.00 | 0.00 | 45 | 1005.8 |
| 20260503222347 | 68 | 230 | 5.0 | 8.0 | 0.00 | 0.00 | 0.00 | 45 | 1006.0 |
| 20260503221844 | 68 | 245 | 6.0 | 8.0 | 0.00 | 0.00 | 0.00 | 44 | 1005.9 |
| 20260503221343 | 68 | 251 | 4.0 | 5.0 | 0.00 | 0.00 | 0.00 | 44 | 1006.0 |
| 20260503220838 | 68 | 265 | 4.0 | 6.0 | 0.00 | 0.00 | 0.00 | 44 | 1006.0 |
| 20260503220335 | 68 | 245 | 3.0 | 3.0 | 0.00 | 0.00 | 0.00 | 44 | 1005.9 |
| 20260503215832 | 68 | 248 | 5.0 | 7.0 | 0.00 | 0.00 | 0.00 | 44 | 1006.2 |
| 20260503215329 | 68 | 246 | 5.0 | 6.0 | 0.00 | 0.00 | 0.00 | 44 | 1005.8 |
| 20260503214826 | 68 | 246 | 6.0 | 9.0 | 0.00 | 0.00 | 0.00 | 44 | 1006.3 |
| 20260503214324 | 67 | 240 | 5.0 | 7.0 | 0.00 | 0.00 | 0.00 | 44 | 1006.0 |
| 20260503213821 | 67 | 210 | 7.0 | 10.0 | 0.00 | 0.00 | 0.00 | 44 | 1006.2 |
| 20260503213319 | 67 | 259 | 5.0 | 7.0 | 0.00 | 0.00 | 0.00 | 44 | 1006.2 |
| 20260503212815 | 67 | 241 | 5.0 | 7.0 | 0.00 | 0.00 | 0.00 | 44 | 1006.5 |
| 20260503212313 | 68 | 223 | 4.0 | 5.0 | 0.00 | 0.00 | 0.00 | 44 | 1006.5 |
| 20260503211810 | 67 | 253 | 3.0 | 3.0 | 0.00 | 0.00 | 0.00 | 45 | 1006.6 |
| 20260503211307 | 66 | 219 | 7.0 | 8.0 | 0.00 | 0.00 | 0.00 | 44 | 1006.6 |
| 20260503210807 | 66 | 195 | 7.0 | 13.0 | 0.00 | 0.00 | 0.00 | 44 | 1006.8 |
| 20260503210305 | 66 | 170 | 6.0 | 8.0 | 0.00 | 0.00 | 0.00 | 44 | 1006.9 |
| 20260503205800 | 66 | 224 | 3.0 | 5.0 | 0.00 | 0.00 | 0.00 | 44 | 1006.7 |
| 20260503205256 | 66 | 213 | 5.0 | 7.0 | 0.00 | 0.00 | 0.00 | 44 | 1007.1 |
| 20260503204753 | 66 | 212 | 7.0 | 9.0 | 0.00 | 0.00 | 0.00 | 44 | 1007.0 |
| 20260503204251 | 66 | 247 | 6.0 | 9.0 | 0.00 | 0.00 | 0.00 | 44 | 1007.2 |
| 20260503203748 | 66 | 236 | 3.0 | 5.0 | 0.00 | 0.00 | 0.00 | 46 | 1007.2 |
| 20260503203245 | 65 | 235 | 10.0 | 14.0 | 0.00 | 0.00 | 0.00 | 48 | 1007.2 |
| 20260503202742 | 65 | 191 | 11.0 | 14.0 | 0.00 | 0.00 | 0.00 | 48 | 1007.5 |
| 20260503202240 | 65 | 242 | 7.0 | 8.0 | 0.00 | 0.00 | 0.00 | 48 | 1007.5 |
| 20260503201737 | 64 | 258 | 6.0 | 10.0 | 0.00 | 0.00 | 0.00 | 50 | 1007.6 |
| 20260503201235 | 64 | 199 | 9.0 | 14.0 | 0.00 | 0.00 | 0.00 | 49 | 1007.7 |
| 20260503200731 | 64 | 223 | 5.0 | 7.0 | 0.00 | 0.00 | 0.00 | 50 | 1007.8 |
| 20260503200228 | 64 | 238 | 9.0 | 10.0 | 0.00 | 0.00 | 0.00 | 51 | 1008.0 |
| 20260503195724 | 64 | 205 | 10.0 | 13.0 | 0.00 | 0.00 | 0.00 | 49 | 1008.4 |
| 20260503195222 | 64 | 217 | 6.0 | 8.0 | 0.00 | 0.00 | 0.00 | 49 | 1008.5 |
| 20260503194719 | 64 | 147 | 7.0 | 14.0 | 0.00 | 0.00 | 0.00 | 49 | 1008.6 |
| 20260503194215 | 63 | 193 | 5.0 | 7.0 | 0.00 | 0.00 | 0.00 | 49 | 1008.7 |
| 20260503193711 | 62 | 215 | 6.0 | 8.0 | 0.00 | 0.00 | 0.00 | 50 | 1008.5 |
| 20260503193207 | 63 | 197 | 8.0 | 10.0 | 0.00 | 0.00 | 0.00 | 49 | 1008.6 |
| 20260503192703 | 64 | 250 | 8.0 | 11.0 | 0.00 | 0.00 | 0.00 | 47 | 1009.0 |
| 20260503192158 | 62 | 229 | 7.0 | 8.0 | 0.00 | 0.00 | 0.00 | 47 | 1008.8 |
| 20260503191655 | 62 | 219 | 4.0 | 5.0 | 0.00 | 0.00 | 0.00 | 49 | 1008.7 |
| 20260503191152 | 62 | 210 | 6.0 | 9.0 | 0.00 | 0.00 | 0.00 | 47 | 1008.5 |
| 20260503190649 | 62 | 211 | 11.0 | 17.0 | 0.00 | 0.00 | 0.00 | 46 | 1008.9 |
| 20260503190146 | 63 | 204 | 3.0 | 5.0 | 0.00 | 0.00 | 0.00 | 48 | 1008.7 |
| 20260503185642 | 62 | 187 | 4.0 | 7.0 | 0.00 | 0.00 | 0.00 | 48 | 1008.8 |
| 20260503185138 | 63 | 183 | 8.0 | 10.0 | 0.00 | 0.00 | 0.00 | 47 | 1008.6 |
| 20260503184633 | 64 | 210 | 6.0 | 8.0 | 0.00 | 0.00 | 0.00 | 46 | 1008.7 |
| 20260503184130 | 63 | 237 | 3.0 | 3.0 | 0.00 | 0.00 | 0.00 | 48 | 1008.8 |
| 20260503183626 | 62 | 212 | 7.0 | 9.0 | 0.00 | 0.00 | 0.00 | 48 | 1009.1 |
| 20260503183124 | 62 | 169 | 5.0 | 7.0 | 0.00 | 0.00 | 0.00 | 50 | 1009.2 |
| 20260503182622 | 61 | 277 | 5.0 | 6.0 | 0.00 | 0.00 | 0.00 | 51 | 1009.2 |
| 20260503182120 | 62 | 243 | 9.0 | 11.0 | 0.00 | 0.00 | 0.00 | 49 | 1009.1 |
| 20260503181616 | 61 | 236 | 4.0 | 6.0 | 0.00 | 0.00 | 0.00 | 52 | 1009.2 |
| 20260503181113 | 61 | 147 | 9.0 | 11.0 | 0.00 | 0.00 | 0.00 | 51 | 1009.4 |
| 20260503180610 | 60 | 238 | 6.0 | 7.0 | 0.00 | 0.00 | 0.00 | 51 | 1009.6 |
| 20260503180108 | 60 | 201 | 5.0 | 7.0 | 0.00 | 0.00 | 0.00 | 53 | 1009.8 |
| 20260503175605 | 59 | 214 | 8.0 | 9.0 | 0.00 | 0.00 | 0.00 | 53 | 1009.8 |
| 20260503175102 | 60 | 224 | 9.0 | 10.0 | 0.00 | 0.00 | 0.00 | 53 | 1009.9 |
| 20260503174558 | 60 | 243 | 3.0 | 3.0 | 0.00 | 0.00 | 0.00 | 55 | 1010.0 |
| 20260503174055 | 60 | 185 | 4.0 | 5.0 | 0.00 | 0.00 | 0.00 | 56 | 1010.3 |
| 20260503173550 | 59 | 236 | 4.0 | 7.0 | 0.00 | 0.00 | 0.00 | 57 | 1010.4 |
| 20260503173047 | 58 | 128 | 6.0 | 7.0 | 0.00 | 0.00 | 0.00 | 59 | 1010.5 |
| 20260503172544 | 58 | 229 | 4.0 | 5.0 | 0.00 | 0.00 | 0.00 | 59 | 1010.6 |
| 20260503172041 | 56 | 157 | 5.0 | 7.0 | 0.00 | 0.00 | 0.00 | 61 | 1011.0 |
| 20260503171538 | 56 | 217 | 3.0 | 3.0 | 0.00 | 0.00 | 0.00 | 62 | 1011.2 |
| 20260503171035 | 55 | 188 | 9.0 | 14.0 | 0.00 | 0.00 | 0.00 | 62 | 1011.1 |
| 20260503170532 | 55 | 218 | 7.0 | 8.0 | 0.00 | 0.00 | 0.00 | 62 | 1011.1 |
| 20260503150924 | 56 | 265 | 6.0 | 8.0 | 0.00 | 0.00 | 0.00 | 56 | 1012.7 |
| 20260503150421 | 57 | 245 | 5.0 | 6.0 | 0.00 | 0.00 | 0.00 | 56 | 1012.6 |
| 20260503131314 | 53 | 203 | 7.0 | 9.0 | 0.00 | 0.00 | 0.00 | 55 | 1013.4 |
| 20260503130811 | 52 | 215 | 5.0 | 8.0 | 0.00 | 0.00 | 0.00 | 56 | 1013.5 |
| 20260503130309 | 52 | 251 | 4.0 | 6.0 | 0.00 | 0.00 | 0.00 | 57 | 1013.4 |
| 20260503110702 | 49 | 261 | 3.0 | 3.0 | 0.00 | 0.00 | 0.00 | 56 | 1013.0 |
| 20260503110200 | 49 | 277 | 4.0 | 5.0 | 0.00 | 0.00 | 0.00 | 56 | 1013.0 |
| 20260503100126 | 50 | 246 | 3.0 | 5.0 | 0.00 | 0.00 | 0.00 | 52 | 1013.4 |
| 20260503081516 | 48 | 237 | 1.0 | 2.0 | 0.00 | 0.00 | 0.00 | 54 | 1014.1 |
| 20260503081013 | 48 | 242 | 3.0 | 3.0 | 0.00 | 0.00 | 0.00 | 54 | 1014.2 |
| 20260503080509 | 48 | 235 | 3.0 | 3.0 | 0.00 | 0.00 | 0.00 | 54 | 1014.0 |
| 20260503072442 | 47 | 241 | 3.0 | 3.0 | 0.00 | 0.00 | 0.00 | 55 | 1014.3 |
| 20260503071939 | 47 | 247 | 2.0 | 2.0 | 0.00 | 0.00 | 0.00 | 55 | 1014.2 |
| 20260503071436 | 47 | 228 | 2.0 | 2.0 | 0.00 | 0.00 | 0.00 | 56 | 1014.2 |
| 20260503070932 | 47 | 240 | 3.0 | 3.0 | 0.00 | 0.00 | 0.00 | 56 | 1014.4 |
| 20260503070430 | 47 | 244 | 2.0 | 3.0 | 0.00 | 0.00 | 0.00 | 57 | 1014.3 |
| 20260503054843 | 47 | 247 | 1.0 | 2.0 | 0.00 | 0.00 | 0.00 | 58 | 1015.1 |
| 20260503054339 | 47 | 231 | 1.0 | 2.0 | 0.00 | 0.00 | 0.00 | 58 | 1015.1 |
| 20260503053837 | 47 | 214 | 1.0 | 1.0 | 0.00 | 0.00 | 0.00 | 58 | 1015.1 |
| 20260503053335 | 47 | 230 | 1.0 | 1.0 | 0.00 | 0.00 | 0.00 | 58 | 1015.2 |
| 20260503052831 | 46 | 225 | 2.0 | 2.0 | 0.00 | 0.00 | 0.00 | 59 | 1015.3 |
| 20260503052328 | 46 | 235 | 1.0 | 1.0 | 0.00 | 0.00 | 0.00 | 59 | 1015.4 |
| 20260503051824 | 46 | 237 | 2.0 | 2.0 | 0.00 | 0.00 | 0.00 | 59 | 1015.3 |
| 20260503051321 | 46 | 227 | 1.0 | 1.0 | 0.00 | 0.00 | 0.00 | 59 | 1015.2 |
| 20260503050818 | 46 | 231 | 1.0 | 1.0 | 0.00 | 0.00 | 0.00 | 59 | 1015.3 |
| 20260503050314 | 47 | 235 | 1.0 | 2.0 | 0.00 | 0.00 | 0.00 | 59 | 1015.4 |
| 20260503045812 | 47 | 228 | 1.0 | 1.0 | 0.00 | 0.00 | 0.00 | 58 | 1015.3 |
| 20260503045309 | 47 | 215 | 2.0 | 2.0 | 0.00 | 0.00 | 0.00 | 58 | 1015.5 |
| 20260503044805 | 47 | 210 | 1.0 | 2.0 | 0.00 | 0.00 | 0.00 | 58 | 1015.4 |
| 20260503044302 | 47 | 230 | 2.0 | 2.0 | 0.00 | 0.00 | 0.00 | 58 | 1015.5 |
| 20260503043800 | 47 | 234 | 1.0 | 2.0 | 0.00 | 0.00 | 0.00 | 58 | 1015.4 |
| 20260503043257 | 47 | 240 | 1.0 | 1.0 | 0.00 | 0.00 | 0.00 | 58 | 1015.3 |
| 20260503042752 | 47 | 235 | 1.0 | 2.0 | 0.00 | 0.00 | 0.00 | 58 | 1015.5 |
| 20260503042249 | 47 | 233 | 2.0 | 2.0 | 0.00 | 0.00 | 0.00 | 58 | 1015.6 |
| 20260503041745 | 47 | 231 | 1.0 | 1.0 | 0.00 | 0.00 | 0.00 | 57 | 1015.6 |
| 20260503041243 | 47 | 234 | 1.0 | 1.0 | 0.00 | 0.00 | 0.00 | 57 | 1015.2 |
| 20260503040741 | 47 | 233 | 1.0 | 2.0 | 0.00 | 0.00 | 0.00 | 57 | 1015.3 |
| 20260503040238 | 47 | 231 | 1.0 | 1.0 | 0.00 | 0.00 | 0.00 | 57 | 1015.4 |
| 20260503035735 | 47 | 242 | 1.0 | 2.0 | 0.00 | 0.00 | 0.00 | 58 | 1015.6 |
| 20260503035232 | 47 | 233 | 0.0 | 1.0 | 0.00 | 0.00 | 0.00 | 58 | 1015.5 |
| 20260503034729 | 47 | 234 | 2.0 | 2.0 | 0.00 | 0.00 | 0.00 | 57 | 1015.7 |
| 20260503034226 | 48 | 232 | 1.0 | 1.0 | 0.00 | 0.00 | 0.00 | 57 | 1015.9 |
| 20260503033724 | 48 | 234 | 0.0 | 1.0 | 0.00 | 0.00 | 0.00 | 57 | 1015.8 |
| 20260503033221 | 48 | 229 | 2.0 | 2.0 | 0.00 | 0.00 | 0.00 | 56 | 1015.7 |
| 20260503032720 | 48 | 237 | 1.0 | 1.0 | 0.00 | 0.00 | 0.00 | 56 | 1015.8 |
| 20260503032218 | 48 | 233 | 1.0 | 1.0 | 0.00 | 0.00 | 0.00 | 56 | 1016.0 |
| 20260503031714 | 48 | 232 | 1.0 | 1.0 | 0.00 | 0.00 | 0.00 | 56 | 1015.9 |
| 20260503031213 | 48 | 236 | 0.0 | 1.0 | 0.00 | 0.00 | 0.00 | 55 | 1015.9 |
| 20260503030708 | 48 | 230 | 1.0 | 1.0 | 0.00 | 0.00 | 0.00 | 56 | 1015.9 |
| 20260503030205 | 48 | 228 | 1.0 | 1.0 | 0.00 | 0.00 | 0.00 | 56 | 1015.9 |
| 20260503025702 | 48 | 230 | 0.0 | 1.0 | 0.00 | 0.00 | 0.00 | 55 | 1015.8 |
| 20260503025200 | 48 | 235 | 0.0 | 0.0 | 0.00 | 0.00 | 0.00 | 55 | 1016.1 |
| 20260503024656 | 48 | 226 | 1.0 | 1.0 | 0.00 | 0.00 | 0.00 | 55 | 1016.0 |
| 20260503024154 | 48 | 235 | 0.0 | 0.0 | 0.00 | 0.00 | 0.00 | 55 | 1016.1 |
| 20260503023650 | 49 | 235 | 0.0 | 0.0 | 0.00 | 0.00 | 0.00 | 55 | 1015.8 |
| 20260503023147 | 49 | 233 | 0.0 | 1.0 | 0.00 | 0.00 | 0.00 | 55 | 1015.9 |
| 20260503022644 | 49 | 233 | 1.0 | 1.0 | 0.00 | 0.00 | 0.00 | 55 | 1016.0 |
| 20260503022142 | 49 | 227 | 1.0 | 1.0 | 0.00 | 0.00 | 0.00 | 54 | 1015.8 |
| 20260503021640 | 49 | 222 | 0.0 | 0.0 | 0.00 | 0.00 | 0.00 | 56 | 1015.9 |
| 20260503021136 | 48 | 229 | 0.0 | 1.0 | 0.00 | 0.00 | 0.00 | 56 | 1015.9 |
| 20260503020633 | 49 | 229 | 0.0 | 0.0 | 0.00 | 0.00 | 0.00 | 57 | 1015.9 |
| 20260503020131 | 49 | 229 | 0.0 | 0.0 | 0.00 | 0.00 | 0.00 | 57 | 1015.7 |
| 20260503015628 | 49 | 229 | 0.0 | 0.0 | 0.00 | 0.00 | 0.00 | 55 | 1015.8 |
| 20260503015125 | 50 | 229 | 0.0 | 0.0 | 0.00 | 0.00 | 0.00 | 54 | 1015.9 |
| 20260503014620 | 50 | 229 | 0.0 | 0.0 | 0.00 | 0.00 | 0.00 | 52 | 1015.8 |
| 20260503014118 | 50 | 229 | 1.0 | 1.0 | 0.00 | 0.00 | 0.00 | 52 | 1015.8 |
| 20260503013615 | 50 | 211 | 3.0 | 3.0 | 0.00 | 0.00 | 0.00 | 53 | 1015.8 |
| 20260503013113 | 50 | 233 | 0.0 | 0.0 | 0.00 | 0.00 | 0.00 | 52 | 1015.6 |
| 20260503012610 | 51 | 234 | 0.0 | 0.0 | 0.00 | 0.00 | 0.00 | 51 | 1015.7 |
| 20260503012107 | 51 | 232 | 0.0 | 0.0 | 0.00 | 0.00 | 0.00 | 49 | 1015.6 |
| 20260503011603 | 51 | 233 | 0.0 | 0.0 | 0.00 | 0.00 | 0.00 | 49 | 1015.8 |
| 20260503011101 | 51 | 232 | 0.0 | 0.0 | 0.00 | 0.00 | 0.00 | 49 | 1015.7 |
| 20260503010556 | 51 | 233 | 0.0 | 0.0 | 0.00 | 0.00 | 0.00 | 48 | 1015.6 |
| 20260503010054 | 52 | 232 | 0.0 | 1.0 | 0.00 | 0.00 | 0.00 | 48 | 1015.9 |
| 20260503005551 | 52 | 235 | 0.0 | 0.0 | 0.00 | 0.00 | 0.00 | 47 | 1015.9 |
| 20260503005049 | 52 | 230 | 0.0 | 1.0 | 0.00 | 0.00 | 0.00 | 46 | 1015.7 |